Location: Bothwell
(42.3833°S, 147.0000°E)
Time: 05:07:27
(UTC+10:00)

STRAND 1 - Visible Passes

Search period start: 25 September 2022 00:00
Search period end: 05 October 2022 01:00
Orbit: 768 x 780 km, 98.4° (Epoch: 24 September)

Date Brightness Start Highest point End Pass type
(mag) Time Alt. Az. Time Alt. Az. Time Alt. Az.
25 Sep ? 18:59:33 10° NNW 19:04:17 35° W 19:09:04 10° SSW visible
27 Sep ? 19:31:41 10° NW 19:35:17 19° W 19:38:54 10° SW visible
28 Sep ? 18:55:59 10° NNW 19:00:47 38° W 19:05:38 10° SSW visible
30 Sep ? 19:28:01 10° NW 19:31:46 20° W 19:35:33 10° SW visible
01 Oct ? 18:52:25 10° NNW 18:57:17 41° W 19:02:11 10° SSW visible
03 Oct ? 20:24:20 10° NW 20:28:14 22° W 20:32:11 10° SW visible
04 Oct ? 19:48:52 10° N 19:53:46 44° W 19:58:44 10° SSW visible
